When you browse on this site, cookies collect data to enhance your experience and personalize the content and advertising you see.
Visit our Privacy Policy to learn more. By continuing to use the site, you agree to this use of cookies and data.
  • In Hungary
  • List of Countries
  • For 7 days
  • Water Temperature
  • Weather Map
  • News
  • Weather Widgets
  • user-avatar
    Login

    Hourly Weather Mezhuiha

    Today, 20 January, Monday

    Time Temperature Precipitation Wind Pressure Humidity
    00:00 0°C° 0 mm 5 mps 750 mmHg 88%
    01:00 0°C° 0 mm 5 mps 750 mmHg 86%
    02:00 0°C° 0 mm 5 mps 750 mmHg 87%
    03:00 0°C° 0.1 mm 5 mps 750 mmHg 88%
    04:00 0°C° 0.1 mm 5 mps 750 mmHg 89%
    05:00 0°C° 0.1 mm 4 mps 750 mmHg 90%
    06:00 -1°C° 0.1 mm 5 mps 750 mmHg 91%
    07:00 -1°C° 0.1 mm 5 mps 750 mmHg 93%
    08:00 -1°C° 0.1 mm 5 mps 750 mmHg 95%
    09:00 -1°C° 0 mm 5 mps 750 mmHg 93%
    10:00 -1°C° 0 mm 5 mps 749 mmHg 91%
    11:00 -1°C° 0 mm 5 mps 749 mmHg 89%
    12:00 -1°C° 0 mm 5 mps 749 mmHg 90%
    13:00 -1°C° 0 mm 5 mps 750 mmHg 91%
    14:00 -1°C° 0 mm 5 mps 750 mmHg 92%
    15:00 -1°C° 0 mm 5 mps 749 mmHg 92%
    16:00 -1°C° 0 mm 5 mps 749 mmHg 91%
    17:00 -1°C° 0 mm 4 mps 749 mmHg 90%
    18:00 -1°C° 0 mm 5 mps 748 mmHg 88%
    19:00 -1°C° 0 mm 5 mps 748 mmHg 85%
    20:00 -2°C° 0 mm 5 mps 748 mmHg 82%
    21:00 -2°C° 0 mm 5 mps 747 mmHg 82%
    22:00 -2°C° 0 mm 5 mps 746 mmHg 81%
    23:00 -2°C° 0 mm 5 mps 746 mmHg 80%

    Tomorrow, 21 January, Tuesday

    Time Temperature Precipitation Wind Pressure Humidity
    00:00 -2°C° 0 mm 5 mps 745 mmHg 84%
    01:00 -2°C° 0 mm 6 mps 744 mmHg 87%
    02:00 -2°C° 0 mm 6 mps 744 mmHg 90%
    03:00 -2°C° 0.3 mm 6 mps 743 mmHg 89%
    04:00 -2°C° 0.3 mm 6 mps 741 mmHg 89%
    05:00 -2°C° 0.3 mm 7 mps 740 mmHg 88%
    06:00 -1°C° 0.2 mm 7 mps 740 mmHg 88%
    07:00 -1°C° 0.2 mm 7 mps 739 mmHg 88%
    08:00 0°C° 0.2 mm 7 mps 738 mmHg 89%
    09:00 +2°C° 0 mm 7 mps 738 mmHg 88%
    10:00 +2°C° 0 mm 6 mps 737 mmHg 88%
    11:00 +3°C° 0 mm 6 mps 737 mmHg 88%
    12:00 +3°C° 0 mm 6 mps 736 mmHg 88%
    13:00 +3°C° 0 mm 6 mps 736 mmHg 88%
    14:00 +3°C° 0 mm 5 mps 735 mmHg 89%
    15:00 +3°C° 1.1 mm 5 mps 734 mmHg 90%
    16:00 +3°C° 1.1 mm 5 mps 733 mmHg 91%
    17:00 +3°C° 1.1 mm 5 mps 732 mmHg 92%
    18:00 +3°C° 0.5 mm 6 mps 732 mmHg 89%
    19:00 +2°C° 0.5 mm 6 mps 732 mmHg 85%
    20:00 0°C° 0.5 mm 7 mps 732 mmHg 82%
    21:00 -1°C° 0 mm 6 mps 733 mmHg 79%
    22:00 -2°C° 0 mm 6 mps 733 mmHg 76%
    23:00 -3°C° 0 mm 6 mps 733 mmHg 74%

    Day after tomorrow, 22 January, Wednesday

    Time Temperature Precipitation Wind Pressure Humidity
    00:00 -3°C° 0 mm 6 mps 733 mmHg 74%
    01:00 -3°C° 0 mm 6 mps 733 mmHg 74%
    02:00 -3°C° 0 mm 6 mps 733 mmHg 74%
    03:00 -3°C° 0 mm 6 mps 732 mmHg 76%
    04:00 -4°C° 0 mm 6 mps 732 mmHg 78%
    05:00 -4°C° 0 mm 6 mps 731 mmHg 80%
    06:00 -4°C° 0.1 mm 6 mps 730 mmHg 80%
    07:00 -4°C° 0.1 mm 6 mps 730 mmHg 80%
    08:00 -4°C° 0.1 mm 6 mps 729 mmHg 80%
    09:00 -3°C° 0.2 mm 6 mps 729 mmHg 77%
    10:00 -3°C° 0.2 mm 6 mps 729 mmHg 73%
    11:00 -3°C° 0.2 mm 6 mps 729 mmHg 69%
    12:00 -3°C° 0 mm 6 mps 729 mmHg 68%
    13:00 -3°C° 0 mm 6 mps 729 mmHg 67%
    14:00 -4°C° 0 mm 6 mps 729 mmHg 66%
    15:00 -4°C° 0 mm 6 mps 729 mmHg 70%
    16:00 -4°C° 0 mm 6 mps 729 mmHg 73%
    17:00 -5°C° 0 mm 6 mps 729 mmHg 77%
    18:00 -5°C° 0 mm 6 mps 730 mmHg 78%
    19:00 -5°C° 0 mm 6 mps 730 mmHg 79%
    20:00 -5°C° 0 mm 6 mps 731 mmHg 80%
    21:00 -6°C° 0.1 mm 6 mps 732 mmHg 77%
    22:00 -6°C° 0.1 mm 6 mps 732 mmHg 74%
    23:00 -8°C° 0.1 mm 6 mps 733 mmHg 71%

    23 January, Thursday

    Time Temperature Precipitation Wind Pressure Humidity
    00:00 -8°C° 0 mm 6 mps 734 mmHg 69%
    01:00 -8°C° 0 mm 6 mps 735 mmHg 68%
    02:00 -9°C° 0 mm 6 mps 735 mmHg 67%
    03:00 -9°C° 0 mm 6 mps 736 mmHg 64%
    04:00 -9°C° 0 mm 6 mps 736 mmHg 60%
    05:00 -9°C° 0 mm 6 mps 737 mmHg 57%
    06:00 -9°C° 0 mm 6 mps 737 mmHg 59%
    07:00 -8°C° 0 mm 6 mps 737 mmHg 61%
    08:00 -8°C° 0 mm 7 mps 738 mmHg 62%
    09:00 -8°C° 0.1 mm 6 mps 738 mmHg 61%
    10:00 -8°C° 0.1 mm 6 mps 739 mmHg 60%
    11:00 -8°C° 0.1 mm 6 mps 740 mmHg 59%
    12:00 -8°C° 0 mm 6 mps 740 mmHg 58%
    13:00 -7°C° 0 mm 5 mps 741 mmHg 57%
    14:00 -7°C° 0 mm 5 mps 741 mmHg 57%
    15:00 -8°C° 0 mm 5 mps 742 mmHg 59%
    16:00 -8°C° 0 mm 4 mps 742 mmHg 61%
    17:00 -7°C° 0 mm 3 mps 742 mmHg 63%
    18:00 -8°C° 0 mm 3 mps 742 mmHg 63%
    19:00 -8°C° 0 mm 3 mps 742 mmHg 62%
    20:00 -7°C° 0 mm 2 mps 743 mmHg 62%
    21:00 -7°C° 0 mm 2 mps 742 mmHg 60%
    22:00 -6°C° 0 mm 2 mps 742 mmHg 58%
    23:00 -6°C° 0 mm 2 mps 742 mmHg 56%

    24 January, Friday

    Time Temperature Precipitation Wind Pressure Humidity
    00:00 -7°C° 0.1 mm 3 mps 741 mmHg 68%
    01:00 -7°C° 0.1 mm 4 mps 741 mmHg 80%
    02:00 -7°C° 0.1 mm 4 mps 740 mmHg 91%
    03:00 -5°C° 0.1 mm 4 mps 739 mmHg 91%
    04:00 -5°C° 0.1 mm 4 mps 738 mmHg 91%
    05:00 -5°C° 0.1 mm 5 mps 737 mmHg 91%
    06:00 -4°C° 0.2 mm 4 mps 737 mmHg 92%
    07:00 -3°C° 0.2 mm 4 mps 736 mmHg 93%
    08:00 -3°C° 0.2 mm 4 mps 736 mmHg 94%
    09:00 -2°C° 0.1 mm 4 mps 736 mmHg 94%
    10:00 -1°C° 0.1 mm 4 mps 735 mmHg 93%
    11:00 0°C° 0.1 mm 4 mps 735 mmHg 93%
    12:00 +1°C° 0 mm 4 mps 735 mmHg 93%
    13:00 +1°C° 0 mm 4 mps 734 mmHg 93%
    14:00 +1°C° 0 mm 4 mps 734 mmHg 94%
    15:00 +1°C° 0.1 mm 4 mps 734 mmHg 94%
    16:00 +1°C° 0.1 mm 4 mps 734 mmHg 94%
    17:00 +1°C° 0.1 mm 5 mps 733 mmHg 94%
    18:00 +1°C° 0.3 mm 5 mps 733 mmHg 95%
    19:00 +1°C° 0.3 mm 4 mps 733 mmHg 95%
    20:00 +1°C° 0.3 mm 4 mps 733 mmHg 96%
    21:00 +1°C° 0.3 mm 4 mps 733 mmHg 96%
    22:00 +1°C° 0.3 mm 4 mps 733 mmHg 97%
    23:00 +1°C° 0.3 mm 4 mps 733 mmHg 97%

    25 January, Saturday

    Time Temperature Precipitation Wind Pressure Humidity
    00:00 +1°C° 0.5 mm 3 mps 733 mmHg 97%
    01:00 +1°C° 0.5 mm 3 mps 733 mmHg 97%
    02:00 +1°C° 0.5 mm 3 mps 733 mmHg 97%
    03:00 +1°C° 0.2 mm 3 mps 733 mmHg 97%
    04:00 +1°C° 0.2 mm 3 mps 733 mmHg 97%
    05:00 +1°C° 0.2 mm 3 mps 733 mmHg 97%
    06:00 +1°C° 0 mm 3 mps 734 mmHg 96%
    07:00 +1°C° 0 mm 3 mps 734 mmHg 96%
    08:00 +1°C° 0 mm 3 mps 734 mmHg 95%
    09:00 +1°C° 0 mm 3 mps 735 mmHg 94%
    10:00 +2°C° 0 mm 3 mps 735 mmHg 93%
    11:00 +2°C° 0 mm 3 mps 735 mmHg 92%
    12:00 +2°C° 0.1 mm 3 mps 735 mmHg 92%
    13:00 +2°C° 0.1 mm 3 mps 736 mmHg 91%
    14:00 +2°C° 0.1 mm 3 mps 736 mmHg 91%
    15:00 +1°C° 0 mm 3 mps 736 mmHg 91%
    16:00 0°C° 0 mm 3 mps 736 mmHg 91%
    17:00 -1°C° 0 mm 3 mps 737 mmHg 92%
    18:00 -1°C° 0 mm 3 mps 737 mmHg 92%
    19:00 -1°C° 0 mm 3 mps 738 mmHg 93%
    20:00 -2°C° 0 mm 2 mps 738 mmHg 93%
    21:00 -2°C° 0 mm 2 mps 738 mmHg 93%
    22:00 -2°C° 0 mm 2 mps 739 mmHg 93%
    23:00 -3°C° 0 mm 2 mps 739 mmHg 93%
    Show more